Wind_Speed
8 8 11 14 15 16 15 14 14 14 14 14 12 11 9 8 7 6 5 4 3 2 2 4 6 7 9 10 10 10 10 11 12 13 13 14 15 15 16 18 19 20 22 22 23 23 23 22 23 23 23 23 23 24 24 24 24 24 24 25 25 25 25 25 25 26 26 26 26
6 10 13 15 16 16 16 15 15 15 14 13 10 9 8 7 6 5 4 2 0 1 3 5 7 7 8 8 8 9 10 11 12 13 13 14 15 16 18 19 20 21 22 21 21 22 22 22 23 23 23 24 24 24 25 25 25 25 25 25 25 25 25 25 25 25 25 25 25
11 13 14 15 15 15 15 14 14 13 11 9 8 7 7 6 6 4 3 1 2 3 5 5 6 7 7 7 8 9 10 11 12 13 15 16 17 18 19 20 20 21 20 20 21 22 22 23 23 24 24 25 25 25 25 25 25 25 25 25 25 24 24 24 24 24 24 24 24
12 13 13 13 13 12 11 10 10 9 8 8 7 7 6 6 5 3 1 1 3 4 5 5 5 6 6 8 9 10 11 13 14 15 16 17 18 19 19 20 20 20 20 20 21 22 23 24 25 25 25 25 25 25 25 25 25 25 24 24 24 23 23 23 23 23 23 23 23
12 12 12 11 10 9 9 9 9 8 7 7 6 6 5 4 3 2 2 2 3 3 3 3 4 6 7 9 10 12 13 14 15 16 17 17 18 19 20 21 20 20 21 22 23 24 25 26 26 26 26 26 26 26 26 26 25 25 25 24 24 23 23 23 23 23 23 23 23
11 11 10 9 9 9 8 8 7 7 7 6 6 5 4 3 3 3 3 2 2 2 3 5 7 8 9 10 11 12 13 14 15 16 17 18 18 19 21 21 21 22 23 24 25 26 27 27 27 28 27 27 27 27 27 26 26 26 25 25 25 24 24 24 24 24 23 23 23
9 9 8 7 7 8 7 7 6 6 6 6 5 5 4 3 3 2 1 2 3 5 7 8 9 10 11 11 12 13 14 15 15 16 17 18 19 20 21 21 21 22 24 25 26 27 27 28 28 28 28 28 28 28 28 27 27 27 26 26 26 25 25 25 25 24 24 24 24
7 7 6 6 6 6 6 6 6 6 5 4 3 2 2 1 1 2 3 5 7 8 9 10 10 11 11 12 12 13 14 15 16 17 17 18 19 20 20 20 21 23 24 25 26 27 28 28 28 28 28 28 28 28 28 28 27 27 27 27 27 27 26 26 25 25 25 25 25
6 6 5 5 6 6 6 6 5 4 3 2 1 0 1 2 3 4 6 7 8 9 10 10 10 11 11 12 12 13 14 15 16 17 18 18 18 19 19 20 21 23 24 25 26 26 27 27 27 27 27 27 27 27 27 27 27 27 27 27 27 27 27 27 26 26 26 26 27
6 6 5 6 6 6 5 5 4 3 2 1 0 1 2 3 4 5 6 7 8 9 10 10 10 10 11 12 13 14 15 16 16 17 17 17 17 18 19 20 21 23 23 24 25 25 25 25 25 25 25 25 25 25 25 25 25 26 26 26 26 26 26 27 27 27 27 27 28
7 6 6 6 6 6 5 4 4 3 2 2 2 2 3 4 5 6 7 8 8 9 9 9 10 10 11 12 13 14 15 16 17 17 17 17 18 19 20 21 22 22 23 24 24 24 24 24 24 24 24 24 24 24 24 24 24 25 25 26 26 26 27 27 27 27 27 27 28
7 7 7 6 6 5 5 4 4 3 3 3 3 4 4 5 6 7 7 7 8 8 9 9 9 10 11 12 13 14 15 16 17 17 18 19 19 20 21 22 22 23 24 24 25 25 25 25 25 25 25 25 25 25 25 25 25 25 26 26 26 26 26 27 27 26 26 26 26
7 7 6 6 6 5 5 5 4 4 4 4 4 5 5 6 6 7 7 7 8 8 9 9 10 10 11 13 14 15 17 18 18 19 19 20 21 21 22 23 23 24 25 25 25 25 25 26 26 26 26 26 26 26 26 26 26 26 26 26 26 26 26 26 26 26 25 25 25
7 6 6 6 6 6 5 5 5 5 5 6 6 6 6 6 6 6 7 7 7 8 9 9 10 11 13 14 16 17 18 19 19 20 20 21 22 22 23 24 24 25 25 26 26 26 25 26 26 26 26 27 27 27 27 26 26 26 26 26 26 26 26 26 26 25 25 25 25
7 7 7 6 6 6 6 6 7 7 6 6 6 5 5 6 6 6 6 7 8 8 10 11 12 13 15 16 18 19 19 20 20 21 22 22 23 24 24 25 25 26 26 26 26 26 26 26 26 26 27 27 27 27 27 27 27 26 26 26 26 26 26 26 26 26 26 26 26
8 8 8 8 8 7 7 7 7 6 5 5 5 5 5 5 5 6 6 7 9 10 11 13 14 16 17 18 19 20 20 21 21 22 23 24 25 25 25 26 26 26 26 26 26 26 26 26 27 27 27 28 28 28 28 28 28 27 27 27 27 27 27 27 27 27 27 26 26
8 8 8 8 8 7 6 6 5 4 3 4 4 4 4 5 5 6 7 9 10 12 13 15 16 17 18 19 20 21 21 22 23 23 24 25 25 25 26 26 26 26 26 26 26 26 27 27 27 28 28 28 28 29 29 29 28 28 28 28 28 28 28 28 28 27 27 26 26
8 8 8 7 7 5 4 3 2 3 3 3 4 4 5 5 7 8 9 11 12 13 15 16 17 18 19 20 21 21 22 23 23 24 25 25 25 25 25 26 26 26 26 26 27 27 28 28 28 28 29 29 29 29 29 29 29 29 29 29 29 29 29 28 28 27 26 26 25
7 6 6 5 5 4 3 3 3 4 4 4 5 5 6 7 8 10 11 12 13 14 16 17 17 18 19 20 21 22 22 23 23 24 25 25 25 25 26 26 26 27 27 27 28 28 29 29 29 29 29 29 29 29 29 30 30 29 29 29 29 29 28 28 27 26 25 25 25
4 4 3 4 4 4 4 4 4 4 4 5 5 6 8 9 10 11 13 14 14 15 16 17 18 19 19 20 21 21 22 23 23 24 24 25 25 26 26 27 28 28 28 29 29 29 29 29 29 29 29 29 29 29 29 30 29 29 29 29 28 28 27 27 26 26 25 25 25
3 3 4 4 4 3 3 3 3 4 5 6 7 8 9 10 12 13 14 14 15 15 16 17 17 18 19 20 21 21 22 23 24 25 25 26 27 27 28 28 29 29 29 29 29 29 29 29 29 29 29 29 29 29 29 29 29 29 28 28 27 27 27 27 26 26 26 26 27
4 4 4 3 3 2 2 3 5 6 9 10 11 12 12 12 13 13 14 14 15 15 15 16 17 18 19 20 21 23 24 25 25 26 27 27 28 28 28 28 29 29 29 29 29 29 29 29 29 29 29 29 29 29 29 28 28 28 27 27 27 27 27 27 27 27 28 28 28
5 4 4 3 3 5 6 8 11 13 14 14 14 13 12 13 13 13 13 14 13 14 14 15 17 19 20 22 23 24 25 26 27 27 27 28 28 28 28 28 28 28 28 28 28 29 29 29 29 29 28 28 28 28 27 26 25 25 25 25 26 26 27 27 27 27 28 28 28
4 4 4 6 8 11 12 14 14 14 14 13 12 12 13 13 13 13 12 12 12 13 15 17 19 21 22 23 24 25 25 26 26 27 27 27 27 27 27 27 27 27 27 28 28 27 27 27 27 27 27 26 25 24 23 22 22 22 23 23 24 25 26 26 26 26 27 27 27
4 6 8 10 12 13 13 13 12 11 11 12 12 13 14 14 13 11 11 11 13 15 17 19 21 22 23 24 24 25 25 25 25 26 26 26 26 26 26 26 26 27 27 27 27 26 26 26 26 25 24 23 22 21 20 21 21 22 22 22 23 24 25 25 26 26 26 27 27
7 8 9 10 10 10 9 10 10 11 12 13 14 14 13 12 11 10 11 12 14 17 19 21 22 23 23 23 24 24 24 25 25 25 26 26 26 27 27 27 26 26 26 26 25 25 24 24 23 22 21 20 20 20 20 21 22 22 22 23 23 23 23 24 25 27 27 28 28
8 8 8 8 8 8 10 11 12 12 13 14 14 13 12 11 11 11 12 13 16 18 20 22 22 22 23 23 23 24 24 25 25 25 26 26 27 27 27 27 26 26 25 25 24 23 23 22 21 21 20 20 20 21 22 23 23 23 23 23 23 23 24 25 25 27 28 29 29
9 8 8 8 9 11 12 13 13 14 14 13 12 11 11 11 11 11 12 15 17 19 21 22 22 22 22 23 23 24 25 25 26 26 26 26 26 26 26 26 26 25 25 24 24 23 23 22 22 21 21 21 22 23 24 24 25 25 25 25 25 24 25 26 26 27 28 28 29
10 9 9 10 12 13 13 14 14 13 13 12 12 12 11 11 11 12 14 16 18 20 21 22 22 22 23 23 24 25 26 26 26 26 26 26 26 26 25 25 25 25 25 25 24 24 23 23 23 23 23 23 23 24 25 25 26 26 27 27 26 26 26 27 27 27 28 28 28
10 10 11 12 12 13 13 13 13 13 13 13 12 12 11 11 12 13 15 17 19 21 22 22 23 23 23 24 25 25 26 26 25 25 25 25 25 25 26 26 26 26 26 25 24 24 23 23 23 23 24 24 25 26 26 27 27 27 27 26 26 26 26 27 27 27 27 27 27
11 12 12 13 13 13 14 14 14 14 14 13 12 11 11 11 12 14 16 18 20 22 23 23 23 24 24 24 25 25 25 25 25 25 25 25 26 26 26 26 26 26 25 25 24 23 23 23 23 24 25 26 27 27 27 27 27 27 26 26 26 26 26 26 27 27 27 27 27
12 13 14 14 15 15 16 16 16 15 14 12 11 11 11 12 13 15 17 20 22 23 24 24 24 24 24 24 24 24 24 24 25 25 25 26 26 26 26 26 26 25 24 23 23 22 23 23 24 25 26 27 28 28 28 27 27 26 25 26 26 27 27 27 27 28 28 28 28
13 14 15 16 17 17 17 17 15 13 12 11 10 10 11 13 14 16 19 21 23 24 24 24 23 23 23 23 23 24 24 25 25 26 26 26 26 26 26 26 25 24 23 22 22 23 24 25 26 27 28 28 29 28 28 27 26 25 25 25 26 27 28 29 29 29 29 29 29
14 16 17 18 19 19 17 15 13 11 9 9 10 11 12 13 15 18 20 22 24 24 23 22 22 22 22 22 23 24 25 25 26 26 26 26 26 26 25 25 24 23 23 22 23 24 25 26 28 28 29 28 28 27 26 26 25 25 25 26 27 28 29 29 30 30 30 30 29
16 17 19 19 19 17 14 11 9 8 8 8 9 11 13 15 17 19 21 23 23 23 22 21 21 21 22 23 23 24 25 25 26 26 26 26 25 25 24 24 24 23 23 23 24 25 27 28 28 28 28 28 27 26 25 25 25 25 26 27 28 29 30 30 31 31 30 30 30
17 18 17 15 12 9 7 6 5 6 7 8 10 12 15 17 19 21 22 22 22 21 20 20 21 22 22 23 24 24 24 25 25 26 26 25 25 24 23 23 23 23 23 24 25 26 27 28 28 28 28 28 27 26 25 24 24 25 26 27 28 30 31 32 32 31 31 30 30
14 11 8 5 3 2 2 3 4 6 8 11 14 16 18 20 21 21 21 20 19 19 19 20 21 22 23 23 24 24 25 25 25 25 25 25 24 23 22 22 23 23 24 25 26 27 28 28 28 28 28 27 27 26 25 24 24 25 26 27 29 31 32 32 31 31 30 29 29
6 3 1 1 1 1 3 4 6 9 13 16 18 20 20 20 20 20 19 18 18 19 20 21 22 22 23 24 24 25 25 25 25 25 24 23 22 21 21 22 23 24 25 26 27 28 28 28 28 27 27 27 27 26 25 24 24 25 26 27 28 29 29 27 26 24 24 23 23
0 1 1 1 1 2 4 7 10 14 17 19 20 20 20 19 19 18 18 18 19 20 20 21 22 23 24 24 25 25 25 25 24 24 23 22 21 20 20 21 23 24 26 27 28 28 28 28 27 27 27 28 27 26 24 23 23 24 25 24 23 21 20 19 18 17 17 18 18
3 2 2 1 2 5 8 12 15 18 19 19 19 19 19 18 18 18 18 19 20 20 21 22 23 23 24 24 24 24 24 24 23 22 21 20 20 20 20 21 23 25 26 27 28 28 27 27 27 27 27 27 27 25 23 21 20 20 19 17 16 16 16 17 18 19 20 21 22
3 2 3 4 7 10 13 16 18 19 19 18 18 17 17 17 17 18 19 20 20 21 22 22 23 24 24 24 23 23 23 23 23 22 20 20 19 20 20 22 24 25 26 27 27 26 26 26 26 26 27 27 26 23 20 18 16 15 15 15 16 17 18 20 21 22 23 24 25
Wind_Direction
273 220 190 179 170 165 161 154 149 147 146 145 146 152 157 157 156 156 156 157 155 172 247 279 290 293 295 298 302 304 302 299 296 294 292 290 287 286 285 284 284 284 284 284 286 288 290 292 293 292 291 290 291 292 292 292 293 293 293 292 292 292 292 293 292 292 292 291 290
147 151 153 154 151 148 143 137 135 135 135 136 136 139 141 141 141 141 141 141 134 295 287 288 294 301 306 308 307 304 300 296 294 292 291 289 288 287 286 286 285 284 283 285 287 289 290 290 290 289 289 289 290 290 291 291 291 291 291 291 290 290 290 290 289 289 289 289 288
120 126 131 133 132 130 129 128 129 129 130 134 132 129 128 128 127 124 116 71 339 323 316 312 312 313 314 310 304 298 295 294 293 292 292 290 290 289 288 286 284 283 283 285 286 287 288 288 288 289 289 289 290 290 290 290 290 290 290 289 289 289 288 287 287 287 287 286 286
115 117 119 120 121 121 123 127 127 127 127 125 124 122 121 121 120 117 93 341 313 311 316 320 311 306 302 297 294 292 292 292 292 292 291 291 290 289 287 284 283 283 284 286 286 287 288 288 289 289 289 289 289 289 289 290 290 289 288 288 288 287 286 285 284 284 284 284 284
114 115 115 116 120 120 119 121 122 123 124 125 126 126 127 131 147 181 240 269 278 285 292 298 296 294 292 291 292 292 292 292 292 291 290 289 288 286 284 282 283 284 285 286 287 287 288 289 289 289 289 289 289 288 288 289 289 288 287 286 285 284 283 283 282 282 282 282 283
119 119 119 120 122 124 125 127 130 132 135 139 142 145 153 171 207 225 231 236 265 282 288 292 294 296 298 298 297 296 294 292 291 290 288 287 286 283 281 281 282 284 285 286 287 287 288 288 288 288 288 288 288 287 287 287 287 286 285 284 283 282 281 281 281 281 281 281 282
130 129 127 128 132 135 138 140 143 146 148 152 156 162 175 199 217 226 248 283 294 296 298 299 301 303 304 303 300 297 294 292 290 288 287 286 284 281 279 281 283 284 285 286 287 287 287 288 287 287 287 286 286 285 285 285 284 283 282 281 281 280 280 279 280 280 280 280 281
141 138 136 139 146 150 151 150 150 151 152 154 157 162 181 229 266 292 301 303 304 305 307 308 308 307 305 302 298 296 293 291 289 288 287 285 282 280 281 283 285 286 287 288 288 288 288 287 286 285 284 283 283 282 282 281 281 279 278 278 278 278 278 278 278 278 279 279 280
151 150 149 151 155 158 157 156 154 150 145 139 127 69 333 321 313 310 309 310 311 312 312 311 308 305 301 298 295 293 292 290 289 289 287 284 282 283 286 288 289 290 290 290 290 289 289 288 286 284 283 282 281 280 280 280 279 277 276 276 276 277 277 277 277 277 278 278 279
165 163 161 160 160 161 161 159 157 154 148 140 161 301 306 307 309 311 312 312 313 312 309 305 302 299 297 294 293 292 291 291 291 289 287 286 287 290 291 292 293 293 293 293 293 292 292 290 289 287 286 285 284 283 283 282 281 279 278 278 278 278 278 278 278 278 278 278 279
172 169 165 163 163 165 165 161 164 173 189 208 240 266 283 294 302 307 308 309 309 306 302 299 297 295 293 292 292 292 292 292 292 290 290 291 292 293 293 294 294 294 294 295 295 296 295 295 294 293 293 292 292 291 290 289 287 286 285 284 284 284 283 283 282 281 281 280 280
166 165 164 165 169 172 172 174 180 193 208 227 249 268 282 292 298 303 305 305 302 299 297 295 294 292 292 292 292 293 293 292 292 292 293 293 293 293 293 293 293 294 295 295 296 297 297 297 297 297 297 297 296 296 295 294 293 292 291 290 290 289 288 287 287 286 285 284 283
163 165 168 172 178 181 184 189 199 214 229 245 262 275 286 294 299 302 303 300 297 295 295 295 293 293 293 294 294 295 294 294 294 294 294 293 292 292 292 292 293 293 294 295 296 296 297 297 298 298 299 299 298 298 297 297 296 296 295 294 294 293 292 292 291 291 290 289 287
176 180 182 184 189 194 200 209 222 237 250 261 271 282 291 297 300 300 298 295 295 295 295 295 295 295 296 297 298 297 297 296 295 294 294 293 292 292 292 292 293 293 294 295 295 296 297 298 299 299 300 300 300 299 299 299 298 298 297 297 296 295 295 294 294 294 294 293 292
195 198 200 202 205 212 221 232 244 253 260 267 277 287 294 296 296 295 294 294 295 296 297 298 299 300 301 301 300 299 298 296 295 294 293 292 292 292 292 293 293 294 294 295 296 296 297 298 299 299 300 300 300 300 300 299 299 298 298 297 297 296 296 296 295 295 295 294 293
211 212 213 215 219 226 235 243 251 257 263 272 284 292 293 294 294 295 296 298 300 301 302 303 304 304 303 302 301 300 298 296 295 294 293 292 292 292 292 293 293 294 295 295 296 297 297 298 298 299 299 299 299 299 299 299 298 298 297 297 296 296 295 295 295 295 294 293 292
221 220 220 221 225 229 235 241 248 259 274 289 297 300 301 302 305 307 307 307 306 306 305 305 305 304 303 301 300 299 298 296 295 293 293 292 292 293 293 293 294 294 295 296 297 297 297 297 297 297 297 297 297 297 297 297 297 296 296 295 295 294 294 294 293 293 292 291 290
220 219 218 219 219 221 225 238 261 286 301 307 311 314 316 317 317 314 311 308 306 305 304 303 303 302 301 300 299 298 297 296 294 294 293 293 293 293 294 294 295 295 296 296 297 297 297 297 296 296 296 295 295 295 295 294 294 293 293 293 292 292 292 291 291 290 289 289 288
211 211 212 216 223 232 250 275 294 304 310 314 317 319 320 319 315 311 307 303 302 301 301 300 300 299 299 298 297 297 296 295 295 294 294 294 294 295 295 295 296 296 296 297 296 296 296 295 295 294 294 293 293 292 292 291 291 290 290 290 290 290 289 289 288 287 286 286 286
216 226 238 249 256 264 274 287 296 305 312 317 319 321 319 313 306 301 299 297 297 297 297 297 297 298 297 297 297 297 297 297 297 296 296 296 296 296 296 297 297 297 296 296 296 295 294 294 293 292 292 291 291 290 290 289 289 289 288 288 288 288 287 287 286 285 285 285 285
247 257 263 268 269 271 276 284 296 309 316 315 310 307 303 298 293 291 290 291 293 294 294 295 296 297 298 299 299 299 299 298 298 298 298 298 298 297 297 297 297 296 296 295 294 293 292 292 291 291 290 290 289 289 288 288 288 287 287 287 287 287 286 286 286 286 285 285 285
255 252 252 256 262 269 279 295 303 302 298 295 291 288 284 281 281 282 284 287 290 292 294 296 298 299 300 300 301 300 300 299 299 299 299 299 298 298 297 297 296 295 294 294 293 292 291 291 290 290 289 289 288 287 287 287 287 287 287 287 287 287 286 286 286 285 285 284 284
244 239 243 262 293 305 304 301 298 295 291 287 282 276 271 270 273 277 282 286 290 295 298 300 300 300 300 299 299 300 300 300 299 299 299 298 298 298 297 297 296 294 293 292 292 291 291 290 290 289 289 288 288 287 287 287 288 288 288 288 288 288 287 286 285 284 283 282 282
239 257 285 299 306 306 302 297 293 287 281 275 268 263 261 265 270 276 282 289 295 299 301 300 299 298 298 298 299 299 300 300 300 299 299 299 298 298 298 297 296 294 293 293 292 292 291 290 290 290 290 289 289 289 290 290 290 291 291 291 290 290 289 287 286 285 284 283 283
276 297 305 308 307 302 296 288 278 268 261 257 256 257 260 264 270 277 285 292 296 299 299 298 298 297 298 299 299 300 300 300 300 300 300 300 299 299 299 298 297 296 295 294 294 294 293 293 293 292 292 292 293 293 294 294 294 294 294 294 293 292 291 289 288 286 285 285 284
297 305 308 308 303 293 278 263 254 249 249 252 254 257 260 265 271 278 286 292 296 298 299 299 298 299 300 300 301 301 301 301 301 300 300 300 300 300 299 299 298 297 296 296 297 298 298 298 298 298 297 298 298 300 300 299 298 298 297 296 294 293 291 290 289 287 286 286 285
289 294 296 293 282 266 252 245 244 246 249 252 255 257 261 267 273 279 287 293 298 300 300 300 300 301 301 302 302 302 301 301 301 301 300 300 300 300 300 300 299 299 299 300 301 302 303 303 302 301 301 302 302 303 303 302 301 300 298 297 295 293 291 290 289 288 287 286 285
274 274 272 268 259 252 247 245 246 248 251 255 258 262 266 270 275 283 291 298 301 302 302 301 302 302 302 302 302 302 301 301 301 301 301 301 301 301 301 301 302 303 304 304 305 305 304 303 302 302 302 303 304 304 304 303 302 300 298 297 295 293 291 289 288 288 287 285 284
263 259 258 257 255 252 250 249 251 254 259 263 266 267 269 273 280 289 297 302 304 304 303 303 303 303 302 302 302 302 301 301 301 301 301 302 302 302 303 304 305 306 306 306 306 305 304 303 302 302 302 303 305 305 304 303 302 300 298 295 293 291 289 287 286 284 283 282 281
253 251 253 256 257 258 258 259 262 266 269 270 269 269 271 277 286 295 302 305 306 305 305 304 303 303 302 302 302 302 301 301 302 302 303 303 304 305 306 306 307 307 307 306 306 305 304 303 303 302 303 304 305 305 305 303 301 299 296 294 291 289 286 284 282 280 279 278 277
248 248 252 257 261 264 266 268 270 272 271 270 269 270 276 285 294 301 306 308 308 307 306 304 303 302 302 303 302 302 302 302 303 304 305 306 306 307 307 307 307 307 307 306 306 305 304 304 304 304 305 305 306 305 304 302 300 297 294 291 288 286 284 281 279 278 277 274 274
249 250 255 259 263 266 267 269 270 270 269 268 270 276 285 294 301 307 310 311 310 308 305 303 302 302 303 303 303 303 303 304 305 306 307 307 308 308 308 308 307 307 307 307 306 305 305 305 306 306 306 306 306 305 303 301 298 295 292 289 286 284 281 278 277 276 274 272 272
251 255 259 262 263 264 265 265 265 265 266 270 278 289 298 304 310 313 314 312 309 306 303 302 302 302 303 303 304 305 305 306 307 307 308 308 308 308 308 307 307 307 308 308 308 307 307 308 308 309 309 308 307 306 303 300 297 294 291 288 285 283 281 278 276 274 273 271 271
256 259 262 264 265 264 262 261 260 262 270 281 292 300 307 313 317 317 313 310 306 302 300 300 302 303 304 304 305 306 307 307 308 308 308 309 309 308 308 307 308 308 309 309 310 310 311 311 311 311 311 310 309 306 303 300 296 293 290 287 286 284 281 279 277 274 272 272 270
261 264 266 268 267 264 261 259 261 269 280 293 303 309 316 320 320 315 310 306 302 300 300 301 303 305 305 306 306 307 307 308 308 309 309 309 309 309 308 308 308 309 310 312 313 314 314 314 314 314 313 311 309 306 303 300 295 292 290 288 286 284 282 281 278 275 273 272 270
268 270 272 272 270 267 264 268 280 292 302 310 319 324 325 322 317 312 307 303 300 300 302 304 306 307 307 307 308 308 308 309 309 310 310 310 310 310 309 309 310 311 313 315 316 317 317 317 317 315 313 311 308 305 303 299 295 293 292 290 287 284 283 281 279 276 274 272 270
276 278 281 284 287 293 304 315 324 332 334 332 331 328 324 318 312 308 304 301 301 303 306 307 308 308 308 309 309 309 309 309 310 310 310 311 311 311 311 311 312 314 316 318 319 320 320 319 317 315 313 310 308 305 303 300 297 295 294 292 290 287 285 282 279 276 274 272 270
285 293 322 32 22 355 344 341 339 338 336 332 328 324 318 312 307 304 303 303 306 308 309 309 308 309 309 310 310 310 309 310 310 310 311 312 312 312 313 314 315 317 319 321 322 322 321 319 317 315 313 311 308 306 303 300 298 297 295 293 290 289 287 285 284 282 280 278 277
207 138 124 100 46 2 345 337 333 330 327 324 320 316 311 306 303 303 305 308 309 310 309 309 309 310 310 311 310 310 310 310 311 312 313 313 313 314 316 318 319 320 322 323 323 322 321 319 318 316 315 313 310 307 304 301 298 296 295 294 295 298 302 305 306 306 305 304 302
122 122 110 54 358 340 331 326 323 320 318 314 311 307 305 304 304 306 308 309 310 310 310 310 310 311 312 312 311 311 311 312 314 315 315 315 315 316 318 321 322 323 323 324 323 322 321 319 318 317 316 314 312 309 306 303 301 301 304 311 321 328 331 330 327 322 318 313 308
92 63 17 346 329 321 318 315 313 312 310 308 306 305 305 305 307 308 309 310 310 311 311 312 312 313 313 313 312 313 314 316 318 318 317 316 317 319 321 324 325 325 325 324 323 321 320 319 318 318 317 315 314 313 313 314 315 319 326 334 336 333 329 324 320 315 312 308 304
Height
775 775 775 775 776 776 778 779 780 781 781 782 783 785 786 787 788 790 791 792 793 794 794 795 796 796 797 798 799 799 800 800 801 801 801 801 801 801 802 802 802 802 801 801 800 800 799 798 798 797 797 796 796 795 794 794 793 793 792 791 791 790 789 788 787 787 786 786 786
776 776 776 776 776 777 778 779 780 781 782 783 784 785 786 788 789 790 791 792 792 793 794 795 796 796 797 798 798 799 799 800 800 800 800 800 801 801 801 801 801 800 800 799 799 798 798 797 797 796 796 795 794 794 793 792 792 791 791 790 789 788 788 787 786 786 785 785 784
778 778 778 779 779 779 780 781 781 782 783 784 785 786 787 788 789 791 791 792 793 793 794 795 796 796 797 798 798 799 799 799 799 799 799 800 800 800 800 800 799 799 798 798 797 797 796 796 795 795 794 793 793 792 791 791 791 790 789 788 787 787 786 786 785 785 784 784 783
780 780 781 781 781 782 782 783 783 784 785 785 786 787 788 789 790 791 791 792 793 794 795 795 796 797 797 797 797 798 798 798 798 798 798 799 799 799 798 798 797 797 797 796 796 796 795 795 794 793 792 792 791 790 790 789 789 788 787 786 786 785 785 784 783 783 783 782 782
782 782 782 782 783 783 784 784 785 785 786 786 787 788 788 789 790 791 791 792 793 794 794 795 796 796 796 796 796 797 797 797 797 797 798 798 797 797 797 796 796 796 795 795 795 794 793 793 792 791 791 790 789 788 788 787 787 786 786 785 784 784 783 783 782 781 781 781 780
783 783 783 783 784 784 785 785 785 786 786 786 787 788 789 789 790 791 791 792 792 793 794 794 795 795 795 795 796 796 796 796 796 796 796 796 796 796 796 795 795 794 794 794 793 792 792 791 790 790 789 788 787 786 786 786 785 784 784 783 782 782 782 781 781 780 780 779 779
783 783 784 784 784 785 785 785 786 786 786 787 787 788 788 789 789 790 791 791 792 793 793 794 794 794 794 794 795 795 795 795 796 796 795 795 795 794 794 793 793 793 792 792 791 791 790 789 789 788 787 786 786 785 784 784 783 783 782 781 781 780 780 780 779 779 778 777 777
784 784 784 784 785 785 785 786 786 786 786 787 787 788 788 789 789 790 791 791 791 792 792 793 793 793 793 794 794 794 794 794 794 794 794 793 793 793 792 792 791 791 791 790 790 789 788 787 787 786 785 784 784 783 782 782 781 781 780 779 779 778 778 778 777 777 776 776 775
783 784 784 784 785 785 785 786 786 786 787 787 788 788 788 789 789 790 790 791 791 791 792 792 792 792 793 793 793 793 793 793 793 792 792 792 791 791 791 790 790 789 789 788 788 787 786 786 785 784 783 782 782 781 781 780 780 779 778 777 777 776 776 776 776 775 775 774 773
783 783 783 784 784 785 785 786 786 786 787 787 787 788 788 789 789 789 790 790 790 791 791 791 792 792 792 792 792 792 792 792 791 791 791 791 790 790 789 788 788 787 787 786 786 786 785 784 783 782 781 781 780 780 779 779 778 777 776 776 775 775 774 774 774 773 773 772 771
782 783 783 783 784 785 785 786 786 786 786 787 787 788 788 788 789 789 789 790 790 790 791 791 791 791 791 791 791 791 791 791 790 790 790 789 788 788 787 787 786 786 786 785 785 784 783 782 782 781 780 780 779 778 778 777 776 776 775 774 774 773 772 772 772 771 771 770 770
782 782 783 783 784 784 785 785 786 786 786 787 787 787 788 788 788 788 789 789 790 790 790 790 791 791 790 790 790 790 790 790 789 789 788 787 787 786 786 786 785 785 784 783 783 782 782 781 780 779 779 778 777 777 776 776 775 774 773 772 772 771 771 770 770 769 769 768 768
782 782 783 783 784 784 785 785 786 786 786 786 787 787 787 787 788 788 788 789 789 789 789 789 790 790 789 789 789 789 789 788 788 787 787 786 786 785 785 784 784 783 782 782 781 781 780 780 779 778 777 776 776 775 775 774 773 772 771 771 770 770 769 768 768 768 767 767 766
782 782 782 783 783 784 784 785 785 786 786 786 786 786 786 787 787 787 787 788 788 788 788 788 789 788 788 788 788 788 787 787 786 786 786 785 784 784 783 782 782 781 781 780 780 779 779 778 777 776 776 775 774 774 773 772 772 771 770 769 769 768 767 767 766 766 766 765 764
781 781 782 782 783 783 784 784 784 785 785 785 785 786 786 786 786 786 787 787 787 787 788 788 788 787 787 787 787 786 786 786 785 785 784 783 783 782 781 781 780 780 779 779 778 777 777 776 776 775 774 773 772 772 771 771 770 769 769 768 767 766 766 765 765 764 764 763 762
781 781 781 782 782 783 783 783 784 784 784 785 785 785 785 786 786 786 786 786 786 787 787 787 787 786 786 786 786 786 785 785 784 783 783 782 781 781 780 779 779 778 777 777 776 776 775 775 774 773 773 772 771 770 770 769 768 768 767 766 766 765 764 763 763 762 762 761 761
780 780 781 781 781 782 782 783 783 784 784 784 784 785 785 785 785 785 786 786 786 786 786 786 786 786 786 785 785 784 784 783 783 782 781 781 780 779 778 778 777 776 776 775 775 774 773 773 772 772 771 770 770 769 768 767 766 766 765 764 764 763 762 762 761 761 760 760 759
780 780 780 781 781 781 782 782 783 783 783 783 784 784 784 784 784 785 785 786 786 786 786 785 785 785 785 784 784 783 782 782 781 781 780 779 778 777 777 776 776 775 774 774 773 772 772 771 771 770 769 769 768 767 766 766 765 764 763 763 762 761 761 760 760 759 758 758 757
780 780 781 781 781 781 781 782 782 782 782 783 783 783 783 784 785 785 785 785 785 785 785 784 784 784 783 783 782 781 781 780 780 779 778 777 777 776 775 775 774 773 773 772 771 771 770 770 769 768 768 767 766 765 765 764 763 762 761 761 760 759 759 758 758 757 757 756 756
779 780 780 780 780 781 781 781 781 782 782 782 783 783 784 784 785 785 785 785 784 784 784 783 783 782 782 781 781 780 780 779 778 777 776 776 775 774 774 773 772 772 771 771 770 769 768 768 767 766 766 765 764 763 762 761 761 760 759 758 758 757 757 756 756 755 755 754 754
779 779 779 779 779 780 780 781 781 781 782 782 783 783 784 784 784 784 784 783 783 783 782 782 781 781 781 780 779 779 778 777 777 776 775 774 774 773 772 771 771 770 769 769 768 767 766 766 765 764 764 763 762 761 760 759 758 758 757 756 756 755 755 754 754 753 753 752 752
778 778 778 779 779 779 780 780 781 781 782 783 783 783 783 783 783 782 782 782 781 781 781 781 780 780 779 778 778 777 776 776 775 774 774 773 772 771 771 770 769 768 768 767 766 765 765 764 763 762 761 761 760 759 758 757 756 756 755 754 753 753 752 752 751 751 751 750 750
777 777 778 778 778 779 779 780 781 781 782 782 782 782 781 781 781 781 781 780 780 780 780 779 779 778 778 777 776 776 775 774 773 773 772 771 771 770 769 768 768 767 766 765 764 763 762 761 761 760 759 758 757 756 756 755 755 754 753 752 751 751 750 750 749 749 749 748 747
776 777 777 777 778 778 779 780 780 781 781 781 780 780 780 779 779 779 779 779 779 778 778 778 777 777 776 776 775 774 773 773 772 771 770 770 769 768 767 766 766 765 764 763 762 761 761 760 759 758 757 756 756 755 754 753 753 752 751 750 749 748 748 747 747 747 746 746 745
776 776 776 776 777 777 778 778 779 779 779 778 778 778 777 778 778 778 777 777 777 777 777 777 776 776 775 774 773 773 772 771 770 769 768 768 767 766 766 765 764 763 762 761 761 760 759 758 757 757 756 755 754 753 752 752 751 750 749 748 748 747 746 745 745 744 744 744 743
775 775 776 776 776 776 777 777 777 777 776 776 776 776 776 777 776 776 776 776 776 776 776 775 775 774 773 773 772 771 771 770 769 768 767 766 765 764 764 763 762 761 761 760 759 758 758 757 756 756 755 754 752 751 751 750 749 749 748 747 746 745 744 743 742 742 742 742 741
774 775 775 775 775 775 775 775 775 775 775 775 775 775 775 775 775 775 774 775 775 775 774 774 773 772 772 771 770 770 769 768 767 766 766 765 764 763 762 761 760 760 759 758 757 757 756 755 755 754 753 752 751 750 749 748 747 747 746 745 745 744 743 742 741 740 739 739 739
773 774 774 774 774 774 774 774 774 774 774 774 774 774 774 774 773 773 773 773 773 773 773 772 771 771 770 770 769 768 767 766 766 765 764 763 762 761 760 759 759 758 757 756 756 755 754 754 753 752 751 750 749 748 747 746 746 745 744 744 743 742 741 740 739 738 737 736 736
772 773 773 773 773 773 773 773 773 773 773 773 773 773 773 772 772 772 772 772 772 772 771 771 770 769 769 768 767 766 766 765 764 763 762 761 760 759 759 758 757 756 756 755 754 753 752 752 751 750 749 749 748 746 746 745 744 743 742 741 741 740 739 738 737 736 735 734 733
771 772 772 772 772 772 772 772 772 772 772 772 772 772 771 771 771 771 771 771 771 771 770 769 769 768 767 766 766 765 764 763 762 761 761 760 759 758 757 756 755 755 754 753 752 751 751 750 749 748 747 747 746 745 744 743 742 741 740 739 738 737 736 736 735 734 733 732 731
771 771 771 771 771 771 771 771 771 771 771 771 771 771 771 771 771 770 770 770 770 769 769 768 767 766 766 765 764 763 762 761 761 760 759 758 757 756 755 754 754 753 752 751 751 750 749 748 747 746 746 745 744 743 742 741 740 739 738 737 736 735 734 733 732 731 730 729 728
770 770 770 770 770 770 770 770 770 770 770 770 770 770 770 770 770 769 769 769 769 768 767 766 766 765 764 763 762 762 761 760 759 758 757 756 756 755 753 753 752 751 751 750 749 748 747 746 746 745 744 743 742 741 740 739 738 737 736 735 733 732 731 731 730 728 727 727 726
769 769 769 769 769 769 769 769 769 769 769 769 769 769 769 769 769 768 768 768 768 767 766 765 764 763 762 762 761 760 759 758 757 757 756 755 754 753 752 751 750 750 749 748 747 746 745 745 744 743 742 741 740 739 738 736 736 734 733 732 731 730 729 728 727 726 725 724 723
768 768 768 768 767 767 767 768 768 768 768 768 769 769 768 768 768 768 767 767 766 765 764 763 763 762 761 761 760 759 758 757 756 755 754 753 752 751 750 749 749 748 747 746 746 745 744 743 742 741 740 739 738 736 736 734 733 732 731 730 729 727 726 725 724 723 722 721 721
767 767 766 766 766 766 767 767 767 767 768 768 768 768 767 767 767 767 766 766 765 764 763 762 761 761 760 759 758 757 756 756 755 754 753 752 751 750 749 748 747 746 746 745 744 743 742 741 740 739 738 737 736 735 733 732 731 730 729 727 726 725 723 722 721 720 719 718 718
766 766 766 766 766 766 766 766 767 767 767 767 767 766 766 766 766 766 765 764 763 762 761 761 760 759 759 758 757 756 755 754 753 752 751 750 749 748 747 746 745 745 744 743 742 741 740 739 738 737 736 735 734 733 731 731 729 728 726 725 723 722 720 719 718 717 716 716 715
765 765 765 765 766 766 766 766 766 766 766 766 766 766 766 766 765 764 763 762 761 761 760 759 759 758 757 756 756 755 754 753 752 751 750 749 748 747 746 744 744 743 742 741 741 740 739 737 736 736 735 733 732 731 730 729 727 726 724 723 721 719 717 716 715 714 713 713 712
764 764 765 765 765 765 765 765 765 765 765 765 765 765 764 764 763 762 761 761 760 759 758 758 757 756 756 755 754 753 752 751 751 750 748 747 746 745 744 743 742 741 741 740 739 738 737 736 735 734 733 732 731 729 728 727 725 724 722 720 718 716 715 714 713 712 712 711 711
763 763 764 764 764 764 764 764 764 764 764 764 764 763 762 762 761 761 760 760 759 758 757 756 756 755 754 754 752 751 751 750 749 748 747 746 745 744 743 742 741 740 739 738 738 737 736 735 734 733 731 731 729 728 726 725 723 721 720 718 716 715 714 713 713 712 711 711 710
763 763 763 763 763 763 763 764 764 764 763 763 762 761 761 760 760 759 759 758 758 757 756 756 755 754 753 752 751 750 749 748 747 747 746 745 744 743 742 741 740 739 738 737 736 736 735 734 732 731 730 729 728 726 725 723 721 720 718 717 716 715 714 713 712 711 710 709 708
762 762 763 763 763 763 763 763 763 762 762 761 761 760 760 759 759 758 758 757 756 756 755 754 753 752 751 751 750 749 748 747 746 745 745 744 743 742 741 740 739 737 736 736 736 735 734 732 731 730 729 728 726 725 723 722 720 719 718 717 716 715 713 712 711 710 709 707 706